sat.trackr.live / text

‹ back to catalog

STARLINK-33763

NORAD 63452 · 2025-069V

PAYLOAD ACTIVE UNKNOWN

§ Identity

Operator
Country
US
Launch date
2025-04-04
Launch site
AFWTR
Launch vehicle
Mass (kg)
RCS (m²)

Purposes: comms

External: N2YO · Heavens-Above · Gunter

§ Orbital elements

Epoch: 2026-09-20T10:59:31.452288Z

Period
93.85 min
Inclination
53.1612°
Eccentricity
0.0000747
Mean motion
15.34418668 rev/d
Perigee alt
462.1 km
Apogee alt
463.2 km
Semi-major
6,840.8 km
B*
3.9228e-4
RAAN
310.0342°
Arg perigee
72.1676°
Mean anomaly
287.9408°
Rev number
8,333

§ Raw data

STARLINK-337631 63452U 25069V   26263.45800292  .00012908  00000+0  39228-3 0  99972 63452  53.1612 310.0342 0000747  72.1676 287.9408 15.34418668 83331

JSON: /api/v1/satellites/63452 · /tle

For live sub-satellite position, see the globe view (requires WebGL).

§ Visibility from observer

Set your observer location to see the next 7 days of passes ≥ 10°. The values pass through the URL so the page stays shareable.

No JS? Fill the form by hand. The geolocation button needs JavaScript.